Location: Gerlach
(40.6516°N, 119.3568°W)
Time: 04:35:25
(UTC-07:00)

Vanguard 2 Rocket - Pass Details

Date: 24 February 2024
Orbit: 555 x 3307 km, 32.9° (Epoch: 23 April)

Event Time Altitude Azimuth Distance (km) Brightness Sun altitude
Rises 19:21:46 0° 277° (W) 5,893 12.7 -19.5°
Reaches altitude 10° 19:25:23 10° 272° (W) 5,197 12.0 -20.2°
Maximum altitude 19:40:45 47° 205° (SSW) 3,845 10.1 -23.1°
Enters shadow 19:57:28 14° 143° (SE) 5,829 10.6 -26.2°
